Time,TemperatureF,DewpointF,PressureIn,WindDirection,WindDirectionDegrees,WindSpeedMPH,WindSpeedGustMPH,Humidity,HourlyPrecipIn,Conditions,Clouds,dailyrainin,SoftwareType,DateUTC
2013-04-14 00:00:00,40.2,38.6,29.95,SW,223,1.0,6.0,94,0.00,,,0.00,Wunderground v.1.15,2013-04-14 04:00:00,
2013-04-14 00:05:00,40.2,38.6,29.95,SW,223,1.0,6.0,94,0.00,,,0.00,Wunderground v.1.15,2013-04-14 04:05:00,
2013-04-14 00:10:00,40.1,38.5,29.95,SW,223,1.0,1.0,94,0.00,,,0.00,Wunderground v.1.15,2013-04-14 04:10:00,
2013-04-14 00:15:00,40.1,38.5,29.95,SW,223,1.0,2.0,94,0.00,,,0.00,Wunderground v.1.15,2013-04-14 04:15:00,
2013-04-14 00:20:00,40.1,38.5,29.96,SW,223,1.0,6.0,94,0.00,,,0.00,Wunderground v.1.15,2013-04-14 04:20:00,
2013-04-14 00:25:00,40.1,38.5,29.96,SW,221,2.0,6.0,94,0.00,,,0.00,Wunderground v.1.15,2013-04-14 04:25:00,
2013-04-14 00:30:00,40.1,38.5,29.96,SSW,196,3.0,3.0,94,0.00,,,0.00,Wunderground v.1.15,2013-04-14 04:30:00,
2013-04-14 00:35:00,40.2,38.6,29.96,SSW,196,1.0,6.0,94,0.00,,,0.00,Wunderground v.1.15,2013-04-14 04:35:00,
2013-04-14 00:45:00,40.1,38.8,29.96,SSW,200,3.0,6.0,95,0.00,,,0.00,Wunderground v.1.15,2013-04-14 04:45:00,
2013-04-14 00:50:00,40.2,38.6,29.96,SSW,197,3.0,6.0,94,0.00,,,0.00,Wunderground v.1.15,2013-04-14 04:50:00,
2013-04-14 00:55:00,40.3,38.7,29.96,SSW,195,4.0,6.0,94,0.00,,,0.00,Wunderground v.1.15,2013-04-14 04:55:00,
2013-04-14 01:00:00,40.3,38.7,29.96,SSW,192,3.0,3.0,94,0.00,,,0.00,Wunderground v.1.15,2013-04-14 05:00:00,
2013-04-14 01:05:00,40.4,38.8,29.96,SSW,192,2.0,6.0,94,0.00,,,0.00,Wunderground v.1.15,2013-04-14 05:05:00,
2013-04-14 01:10:00,40.4,38.8,29.96,SSW,192,2.0,6.0,94,0.00,,,0.00,Wunderground v.1.15,2013-04-14 05:10:00,
2013-04-14 01:20:00,40.3,38.7,29.96,SW,214,3.0,6.0,94,0.00,,,0.00,Wunderground v.1.15,2013-04-14 05:20:00,
2013-04-14 01:25:00,40.4,38.8,29.96,SW,232,3.0,6.0,94,0.00,,,0.00,Wunderground v.1.15,2013-04-14 05:25:00,
2013-04-14 01:30:00,40.4,38.8,29.96,South,187,4.0,6.0,94,0.00,,,0.00,Wunderground v.1.15,2013-04-14 05:30:00,
2013-04-14 01:35:00,40.4,38.8,29.96,South,188,3.0,6.0,94,0.00,,,0.00,Wunderground v.1.15,2013-04-14 05:35:00,
2013-04-14 01:40:00,40.5,39.2,29.96,SSW,201,4.0,4.0,95,0.00,,,0.00,Wunderground v.1.15,2013-04-14 05:40:00,
2013-04-14 01:50:00,40.6,39.3,29.96,South,190,3.0,3.0,95,0.00,,,0.00,Wunderground v.1.15,2013-04-14 05:50:00,
2013-04-14 01:55:00,40.6,39.3,29.96,South,191,4.0,4.0,95,0.00,,,0.00,Wunderground v.1.15,2013-04-14 05:55:00,
2013-04-14 02:00:00,40.7,39.4,29.96,South,189,3.0,6.0,95,0.00,,,0.00,Wunderground v.1.15,2013-04-14 06:00:00,
2013-04-14 02:05:00,40.7,39.4,29.96,SSW,194,2.0,6.0,95,0.00,,,0.00,Wunderground v.1.15,2013-04-14 06:05:00,
2013-04-14 02:10:00,40.7,39.4,29.96,SW,225,2.0,6.0,95,0.00,,,0.00,Wunderground v.1.15,2013-04-14 06:10:00,
2013-04-14 02:15:00,40.7,39.4,29.96,SW,225,2.0,6.0,95,0.00,,,0.00,Wunderground v.1.15,2013-04-14 06:15:00,
2013-04-14 02:25:00,40.8,39.5,29.95,SSW,196,3.0,6.0,95,0.00,,,0.00,Wunderground v.1.15,2013-04-14 06:25:00,
2013-04-14 02:30:00,40.8,39.5,29.95,SSW,198,3.0,6.0,95,0.00,,,0.00,Wunderground v.1.15,2013-04-14 06:30:00,
2013-04-14 02:35:00,40.8,39.5,29.95,South,190,4.0,6.0,95,0.00,,,0.00,Wunderground v.1.15,2013-04-14 06:35:00,
2013-04-14 02:45:00,40.7,39.4,29.95,SSW,200,3.0,6.0,95,0.00,,,0.00,Wunderground v.1.15,2013-04-14 06:45:00,
2013-04-14 02:50:00,40.7,39.4,29.94,South,172,3.0,6.0,95,0.00,,,0.00,Wunderground v.1.15,2013-04-14 06:50:00,
2013-04-14 03:00:00,40.7,39.4,29.94,SW,214,4.0,4.0,95,0.00,,,0.00,Wunderground v.1.15,2013-04-14 07:00:00,
2013-04-14 03:05:00,40.7,39.4,29.94,SW,214,3.0,6.0,95,0.00,,,0.00,Wunderground v.1.15,2013-04-14 07:05:00,
2013-04-14 03:10:00,40.7,39.4,29.94,SSW,205,3.0,6.0,95,0.00,,,0.00,Wunderground v.1.15,2013-04-14 07:10:00,
2013-04-14 03:15:00,40.7,39.4,29.93,SSW,202,4.0,6.0,95,0.00,,,0.00,Wunderground v.1.15,2013-04-14 07:15:00,
2013-04-14 03:20:00,40.7,39.4,29.94,South,186,4.0,4.0,95,0.00,,,0.00,Wunderground v.1.15,2013-04-14 07:20:00,
2013-04-14 03:25:00,40.6,39.3,29.93,SW,222,4.0,6.0,95,0.00,,,0.00,Wunderground v.1.15,2013-04-14 07:25:00,
2013-04-14 03:35:00,40.6,39.3,29.93,SSW,198,4.0,6.0,95,0.00,,,0.00,Wunderground v.1.15,2013-04-14 07:35:00,
2013-04-14 03:40:00,40.6,39.3,29.93,SSW,205,3.0,6.0,95,0.00,,,0.00,Wunderground v.1.15,2013-04-14 07:40:00,
2013-04-14 03:45:00,40.6,39.3,29.93,SSW,200,3.0,6.0,95,0.00,,,0.00,Wunderground v.1.15,2013-04-14 07:45:00,
2013-04-14 03:50:00,40.6,39.3,29.92,SSW,199,3.0,6.0,95,0.00,,,0.00,Wunderground v.1.15,2013-04-14 07:50:00,
2013-04-14 03:55:00,40.6,39.3,29.92,SSW,198,3.0,6.0,95,0.00,,,0.00,Wunderground v.1.15,2013-04-14 07:55:00,
2013-04-14 04:05:00,40.6,39.3,29.93,SSW,209,3.0,6.0,95,0.00,,,0.00,Wunderground v.1.15,2013-04-14 08:05:00,
2013-04-14 04:10:00,40.6,39.5,29.93,SSW,210,3.0,6.0,96,0.00,,,0.00,Wunderground v.1.15,2013-04-14 08:10:00,
2013-04-14 04:15:00,40.6,39.5,29.93,SW,214,4.0,6.0,96,0.00,,,0.00,Wunderground v.1.15,2013-04-14 08:15:00,
2013-04-14 04:20:00,40.6,39.5,29.93,SW,228,3.0,3.0,96,0.00,,,0.00,Wunderground v.1.15,2013-04-14 08:20:00,
2013-04-14 04:25:00,40.6,39.5,29.93,SW,228,1.0,6.0,96,0.00,,,0.00,Wunderground v.1.15,2013-04-14 08:25:00,
2013-04-14 04:30:00,40.6,39.5,29.93,SW,227,1.0,1.0,96,0.00,,,0.00,Wunderground v.1.15,2013-04-14 08:30:00,
2013-04-14 04:40:00,40.4,39.1,29.94,SW,228,1.0,6.0,95,0.00,,,0.00,Wunderground v.1.15,2013-04-14 08:40:00,
2013-04-14 04:45:00,40.5,39.4,29.94,SSW,206,2.0,6.0,96,0.00,,,0.00,Wunderground v.1.15,2013-04-14 08:45:00,
2013-04-14 04:50:00,40.5,39.4,29.94,SSW,207,2.0,6.0,96,0.00,,,0.00,Wunderground v.1.15,2013-04-14 08:50:00,
2013-04-14 04:55:00,40.5,39.4,29.94,SW,214,2.0,6.0,96,0.00,,,0.00,Wunderground v.1.15,2013-04-14 08:55:00,
2013-04-14 05:00:00,40.5,39.4,29.93,SSW,213,2.0,6.0,96,0.00,,,0.00,Wunderground v.1.15,2013-04-14 09:00:00,
2013-04-14 05:10:00,40.5,39.4,29.93,SSW,200,1.0,1.0,96,0.00,,,0.00,Wunderground v.1.15,2013-04-14 09:10:00,
2013-04-14 05:15:00,40.5,39.4,29.93,SSW,200,1.0,6.0,96,0.00,,,0.00,Wunderground v.1.15,2013-04-14 09:15:00,
2013-04-14 05:20:00,40.5,39.4,29.94,SSW,200,0.0,6.0,96,0.00,,,0.00,Wunderground v.1.15,2013-04-14 09:20:00,
2013-04-14 05:25:00,40.5,39.4,29.94,SSW,200,0.0,6.0,96,0.00,,,0.00,Wunderground v.1.15,2013-04-14 09:25:00,
2013-04-14 05:30:00,40.5,39.4,29.94,SSW,200,1.0,1.0,96,0.00,,,0.00,Wunderground v.1.15,2013-04-14 09:30:00,
2013-04-14 05:35:00,40.6,39.5,29.94,SSW,201,1.0,6.0,96,0.00,,,0.00,Wunderground v.1.15,2013-04-14 09:35:00,
2013-04-14 05:45:00,40.3,39.3,29.95,SW,234,2.0,7.0,96,0.00,,,0.00,Wunderground v.1.15,2013-04-14 09:45:00,
2013-04-14 05:50:00,40.6,39.5,29.95,SW,219,4.0,6.0,96,0.00,,,0.00,Wunderground v.1.15,2013-04-14 09:50:00,
2013-04-14 05:55:00,40.7,39.6,29.95,SSW,211,5.0,6.0,96,0.00,,,0.00,Wunderground v.1.15,2013-04-14 09:55:00,
2013-04-14 06:05:00,40.8,39.7,29.95,SW,235,4.0,6.0,96,0.00,,,0.00,Wunderground v.1.15,2013-04-14 10:05:00,
2013-04-14 06:10:00,40.9,39.8,29.95,WSW,248,3.0,6.0,96,0.00,,,0.00,Wunderground v.1.15,2013-04-14 10:10:00,
2013-04-14 06:20:00,40.9,39.8,29.95,WSW,248,2.0,2.0,96,0.00,,,0.00,Wunderground v.1.15,2013-04-14 10:20:00,
2013-04-14 06:25:00,40.9,39.8,29.95,WSW,248,0.0,6.0,96,0.00,,,0.00,Wunderground v.1.15,2013-04-14 10:25:00,
2013-04-14 06:30:00,40.9,39.8,29.96,WSW,248,0.0,6.0,96,0.00,,,0.00,Wunderground v.1.15,2013-04-14 10:30:00,
2013-04-14 06:35:00,41.1,40.0,29.96,WSW,248,0.0,6.0,96,0.00,,,0.00,Wunderground v.1.15,2013-04-14 10:35:00,
2013-04-14 06:40:00,41.1,40.0,29.96,WSW,248,0.0,6.0,96,0.00,,,0.00,Wunderground v.1.15,2013-04-14 10:40:00,
2013-04-14 06:50:00,41.0,39.9,29.95,WSW,248,0.0,6.0,96,0.00,,,0.00,Wunderground v.1.15,2013-04-14 10:50:00,
2013-04-14 06:55:00,40.7,39.6,29.96,WSW,248,1.0,6.0,96,0.00,,,0.00,Wunderground v.1.15,2013-04-14 10:55:00,
2013-04-14 07:00:00,40.6,39.5,29.96,WSW,248,1.0,1.0,96,0.00,,,0.00,Wunderground v.1.15,2013-04-14 11:00:00,
2013-04-14 07:05:00,40.7,39.6,29.96,WSW,248,0.0,6.0,96,0.00,,,0.00,Wunderground v.1.15,2013-04-14 11:05:00,
2013-04-14 07:10:00,40.8,39.7,29.97,WSW,248,0.0,6.0,96,0.00,,,0.00,Wunderground v.1.15,2013-04-14 11:10:00,
2013-04-14 07:15:00,40.7,39.6,29.97,WSW,248,0.0,6.0,96,0.00,,,0.00,Wunderground v.1.15,2013-04-14 11:15:00,
2013-04-14 07:25:00,40.8,39.7,29.97,WSW,248,0.0,6.0,96,0.00,,,0.00,Wunderground v.1.15,2013-04-14 11:25:00,
2013-04-14 07:30:00,40.9,39.8,29.97,WSW,248,1.0,6.0,96,0.00,,,0.00,Wunderground v.1.15,2013-04-14 11:30:00,
2013-04-14 07:35:00,40.8,39.7,29.97,WSW,248,1.0,6.0,96,0.00,,,0.00,Wunderground v.1.15,2013-04-14 11:35:00,
2013-04-14 07:40:00,40.9,39.8,29.97,WSW,248,0.0,6.0,96,0.00,,,0.00,Wunderground v.1.15,2013-04-14 11:40:00,
2013-04-14 07:45:00,41.1,40.0,29.97,WSW,248,0.0,6.0,96,0.00,,,0.00,Wunderground v.1.15,2013-04-14 11:45:00,
2013-04-14 07:55:00,41.5,40.4,29.97,WSW,248,0.0,6.0,96,0.00,,,0.00,Wunderground v.1.15,2013-04-14 11:55:00,
2013-04-14 08:00:00,41.5,40.4,29.97,WSW,248,0.0,6.0,96,0.00,,,0.00,Wunderground v.1.15,2013-04-14 12:00:00,
2013-04-14 08:05:00,41.6,40.5,29.98,WSW,248,0.0,6.0,96,0.00,,,0.00,Wunderground v.1.15,2013-04-14 12:05:00,
2013-04-14 08:10:00,41.6,40.5,29.98,WSW,248,0.0,6.0,96,0.00,,,0.00,Wunderground v.1.15,2013-04-14 12:10:00,
2013-04-14 08:15:00,41.6,40.5,29.98,West,279,1.0,6.0,96,0.00,,,0.00,Wunderground v.1.15,2013-04-14 12:15:00,
2013-04-14 08:20:00,41.7,40.6,29.98,West,281,2.0,2.0,96,0.00,,,0.00,Wunderground v.1.15,2013-04-14 12:20:00,
2013-04-14 08:30:00,41.9,40.8,29.98,West,261,2.0,2.0,96,0.00,,,0.00,Wunderground v.1.15,2013-04-14 12:30:00,
2013-04-14 08:35:00,41.9,40.8,29.98,West,266,3.0,3.0,96,0.00,,,0.00,Wunderground v.1.15,2013-04-14 12:35:00,
2013-04-14 08:40:00,41.9,40.8,29.98,WNW,292,3.0,3.0,96,0.00,,,0.00,Wunderground v.1.15,2013-04-14 12:40:00,
2013-04-14 08:45:00,41.8,40.5,29.98,West,273,3.0,4.0,95,0.00,,,0.00,Wunderground v.1.15,2013-04-14 12:45:00,
2013-04-14 08:50:00,41.9,40.6,29.98,WSW,249,3.0,6.0,95,0.00,,,0.00,Wunderground v.1.15,2013-04-14 12:50:00,
2013-04-14 09:00:00,41.9,40.6,29.98,West,275,2.0,2.0,95,0.00,,,0.00,Wunderground v.1.15,2013-04-14 13:00:00,
2013-04-14 09:05:00,41.9,40.6,29.98,West,275,1.0,3.0,95,0.00,,,0.00,Wunderground v.1.15,2013-04-14 13:05:00,
2013-04-14 09:10:00,42.1,40.8,29.98,West,275,1.0,1.0,95,0.00,,,0.00,Wunderground v.1.15,2013-04-14 13:10:00,
2013-04-14 09:15:00,42.4,41.1,29.98,West,275,0.0,6.0,95,0.00,,,0.00,Wunderground v.1.15,2013-04-14 13:15:00,
2013-04-14 09:20:00,42.7,41.4,29.98,NNE,12,0.0,6.0,95,0.00,,,0.00,Wunderground v.1.15,2013-04-14 13:20:00,
2013-04-14 09:25:00,42.9,41.6,29.98,NNE,12,0.0,6.0,95,0.00,,,0.00,Wunderground v.1.15,2013-04-14 13:25:00,
2013-04-14 09:35:00,43.2,41.9,29.98,NW,314,0.0,6.0,95,0.00,,,0.00,Wunderground v.1.15,2013-04-14 13:35:00,
2013-04-14 09:40:00,43.6,42.0,29.98,SW,236,0.0,6.0,94,0.00,,,0.00,Wunderground v.1.15,2013-04-14 13:40:00,
2013-04-14 09:45:00,43.4,41.5,29.98,WSW,244,2.0,6.0,93,0.00,,,0.00,Wunderground v.1.15,2013-04-14 13:45:00,
2013-04-14 09:50:00,43.3,41.1,29.98,WSW,252,4.0,4.0,92,0.00,,,0.00,Wunderground v.1.15,2013-04-14 13:50:00,
2013-04-14 09:55:00,43.6,41.4,29.98,WSW,250,3.0,6.0,92,0.00,,,0.00,Wunderground v.1.15,2013-04-14 13:55:00,
2013-04-14 10:05:00,44.5,41.7,29.98,SW,221,2.0,6.0,90,0.00,,,0.00,Wunderground v.1.15,2013-04-14 14:05:00,
2013-04-14 10:10:00,45.0,41.4,29.98,SSW,198,4.0,4.0,87,0.00,,,0.00,Wunderground v.1.15,2013-04-14 14:10:00,
2013-04-14 10:15:00,45.8,42.2,29.98,West,260,4.0,6.0,87,0.00,,,0.00,Wunderground v.1.15,2013-04-14 14:15:00,
2013-04-14 10:20:00,46.4,41.8,29.98,SW,214,4.0,6.0,84,0.00,,,0.00,Wunderground v.1.15,2013-04-14 14:20:00,
2013-04-14 10:25:00,47.0,41.8,29.98,SSW,211,3.0,6.0,82,0.00,,,0.00,Wunderground v.1.15,2013-04-14 14:25:00,
2013-04-14 10:30:00,47.7,41.5,29.98,SW,221,3.0,6.0,79,0.00,,,0.00,Wunderground v.1.15,2013-04-14 14:30:00,
2013-04-14 10:40:00,47.8,40.9,29.98,SSW,205,4.0,9.0,77,0.00,,,0.00,Wunderground v.1.15,2013-04-14 14:40:00,
2013-04-14 10:45:00,47.6,40.7,29.98,West,259,5.0,9.0,77,0.00,,,0.00,Wunderground v.1.15,2013-04-14 14:45:00,
2013-04-14 10:50:00,47.6,40.1,29.97,SW,227,5.0,8.0,75,0.00,,,0.00,Wunderground v.1.15,2013-04-14 14:50:00,
2013-04-14 10:55:00,47.9,40.7,29.97,South,173,6.0,8.0,76,0.00,,,0.00,Wunderground v.1.15,2013-04-14 14:55:00,
2013-04-14 11:00:00,48.3,40.4,29.97,SW,222,6.0,6.0,74,0.00,,,0.00,Wunderground v.1.15,2013-04-14 15:00:00,
2013-04-14 11:10:00,48.1,40.2,29.98,SSW,192,7.0,7.0,74,0.00,,,0.00,Wunderground v.1.15,2013-04-14 15:10:00,
2013-04-14 11:15:00,48.4,40.5,29.97,WSW,240,5.0,7.0,74,0.00,,,0.00,Wunderground v.1.15,2013-04-14 15:15:00,
2013-04-14 11:20:00,48.2,39.9,29.97,WSW,249,4.0,8.0,73,0.00,,,0.00,Wunderground v.1.15,2013-04-14 15:20:00,
2013-04-14 11:25:00,47.9,39.7,29.97,SW,220,5.0,8.0,73,0.00,,,0.00,Wunderground v.1.15,2013-04-14 15:25:00,
2013-04-14 11:30:00,48.5,39.5,29.97,SSW,196,4.0,7.0,71,0.00,,,0.00,Wunderground v.1.15,2013-04-14 15:30:00,
2013-04-14 11:35:00,48.8,39.1,29.97,WNW,284,4.0,7.0,69,0.00,,,0.00,Wunderground v.1.15,2013-04-14 15:35:00,
2013-04-14 11:45:00,48.7,38.2,29.97,SW,225,5.0,8.0,67,0.00,,,0.00,Wunderground v.1.15,2013-04-14 15:45:00,
2013-04-14 11:50:00,49.0,38.1,29.96,SW,217,6.0,6.0,66,0.00,,,0.00,Wunderground v.1.15,2013-04-14 15:50:00,
2013-04-14 11:55:00,48.9,38.0,29.96,SSW,209,5.0,6.0,66,0.00,,,0.00,Wunderground v.1.15,2013-04-14 15:55:00,
2013-04-14 12:00:00,49.5,37.8,29.96,West,270,3.0,6.0,64,0.00,,,0.00,Wunderground v.1.15,2013-04-14 16:00:00,
2013-04-14 12:05:00,49.4,37.7,29.96,West,281,4.0,9.0,64,0.00,,,0.00,Wunderground v.1.15,2013-04-14 16:05:00,
2013-04-14 12:15:00,50.5,38.0,29.96,NW,304,4.0,6.0,62,0.00,,,0.00,Wunderground v.1.15,2013-04-14 16:15:00,
2013-04-14 12:20:00,50.9,37.1,29.96,SW,227,5.0,6.0,59,0.00,,,0.00,Wunderground v.1.15,2013-04-14 16:20:00,
2013-04-14 12:25:00,51.0,37.6,29.96,SSW,209,6.0,6.0,60,0.00,,,0.00,Wunderground v.1.15,2013-04-14 16:25:00,
2013-04-14 12:30:00,51.2,38.2,29.96,WSW,246,5.0,5.0,61,0.00,,,0.00,Wunderground v.1.15,2013-04-14 16:30:00,
2013-04-14 12:35:00,51.4,38.0,29.96,WNW,302,4.0,7.0,60,0.00,,,0.00,Wunderground v.1.15,2013-04-14 16:35:00,
2013-04-14 12:40:00,50.7,37.3,29.96,WNW,300,4.0,4.0,60,0.00,,,0.00,Wunderground v.1.15,2013-04-14 16:40:00,
2013-04-14 12:50:00,51.3,36.6,29.96,SW,232,4.0,7.0,57,0.00,,,0.00,Wunderground v.1.15,2013-04-14 16:50:00,
2013-04-14 12:55:00,50.4,36.6,29.96,West,273,6.0,7.0,59,0.00,,,0.00,Wunderground v.1.15,2013-04-14 16:55:00,
2013-04-14 13:00:00,50.1,36.3,29.96,WSW,249,6.0,6.0,59,0.00,,,0.00,Wunderground v.1.15,2013-04-14 17:00:00,
2013-04-14 13:05:00,50.2,36.4,29.96,SW,232,5.0,6.0,59,0.00,,,0.00,Wunderground v.1.15,2013-04-14 17:05:00,
2013-04-14 13:10:00,50.1,38.0,29.96,WSW,244,6.0,6.0,63,0.00,,,0.00,Wunderground v.1.15,2013-04-14 17:10:00,
2013-04-14 13:20:00,49.7,36.8,29.96,SSW,211,6.0,8.0,61,0.00,,,0.00,Wunderground v.1.15,2013-04-14 17:20:00,
2013-04-14 13:25:00,49.7,37.6,29.96,WNW,284,6.0,8.0,63,0.00,,,0.00,Wunderground v.1.15,2013-04-14 17:25:00,
2013-04-14 13:30:00,49.6,37.5,29.97,WSW,253,6.0,6.0,63,0.00,,,0.00,Wunderground v.1.15,2013-04-14 17:30:00,
2013-04-14 13:35:00,49.0,38.9,29.97,SSW,207,6.0,6.0,68,0.00,,,0.00,Wunderground v.1.15,2013-04-14 17:35:00,
2013-04-14 13:40:00,48.0,39.0,29.98,SSW,205,6.0,6.0,71,0.00,,,0.00,Wunderground v.1.15,2013-04-14 17:40:00,
2013-04-14 13:45:00,47.3,39.8,29.98,West,265,6.0,6.0,75,0.00,,,0.00,Wunderground v.1.15,2013-04-14 17:45:00,
2013-04-14 13:55:00,45.9,40.7,29.98,WNW,295,8.0,8.0,82,0.00,,,0.00,Wunderground v.1.15,2013-04-14 17:55:00,
2013-04-14 14:00:00,45.7,40.8,29.98,NNW,327,5.0,5.0,83,0.00,,,0.00,Wunderground v.1.15,2013-04-14 18:00:00,
2013-04-14 14:05:00,45.9,41.6,29.99,NW,305,2.0,6.0,85,0.00,,,0.00,Wunderground v.1.15,2013-04-14 18:05:00,
2013-04-14 14:10:00,45.8,41.9,29.99,WSW,245,2.0,6.0,86,0.00,,,0.00,Wunderground v.1.15,2013-04-14 18:10:00,
2013-04-14 14:15:00,45.8,42.2,29.99,West,269,3.0,6.0,87,0.00,,,0.00,Wunderground v.1.15,2013-04-14 18:15:00,
2013-04-14 14:25:00,45.3,42.0,29.99,WSW,238,7.0,7.0,88,0.00,,,0.00,Wunderground v.1.15,2013-04-14 18:25:00,
2013-04-14 14:30:00,45.6,42.3,29.99,SW,214,6.0,8.0,88,0.00,,,0.00,Wunderground v.1.15,2013-04-14 18:30:00,
2013-04-14 14:35:00,45.7,41.4,29.99,SW,218,6.0,8.0,85,0.00,,,0.00,Wunderground v.1.15,2013-04-14 18:35:00,
2013-04-14 14:40:00,46.4,42.1,29.99,West,259,7.0,7.0,85,0.00,,,0.00,Wunderground v.1.15,2013-04-14 18:40:00,
2013-04-14 14:45:00,46.6,41.7,29.99,SW,227,7.0,8.0,83,0.00,,,0.00,Wunderground v.1.15,2013-04-14 18:45:00,
2013-04-14 14:50:00,46.9,41.7,29.99,West,265,7.0,7.0,82,0.00,,,0.00,Wunderground v.1.15,2013-04-14 18:50:00,
2013-04-14 15:00:00,46.5,40.3,29.99,WSW,244,6.0,7.0,79,0.00,,,0.00,Wunderground v.1.15,2013-04-14 19:00:00,
2013-04-14 15:05:00,46.0,40.5,29.99,WSW,243,5.0,7.0,81,0.30,,,0.02,Wunderground v.1.15,2013-04-14 19:05:00,
2013-04-14 15:10:00,46.1,41.8,29.99,WSW,243,2.0,2.0,85,0.21,,,0.04,Wunderground v.1.15,2013-04-14 19:10:00,
2013-04-14 15:15:00,45.9,41.6,29.99,NNE,19,0.0,6.0,85,0.16,,,0.05,Wunderground v.1.15,2013-04-14 19:15:00,
2013-04-14 15:20:00,45.9,41.9,29.99,NE,51,1.0,6.0,86,0.07,,,0.05,Wunderground v.1.15,2013-04-14 19:20:00,
2013-04-14 15:30:00,46.5,43.1,30.00,SE,139,1.0,1.0,88,0.00,,,0.05,Wunderground v.1.15,2013-04-14 19:30:00,
2013-04-14 15:35:00,46.3,42.9,30.00,SE,130,1.0,6.0,88,0.00,,,0.05,Wunderground v.1.15,2013-04-14 19:35:00,
2013-04-14 15:40:00,46.0,42.6,30.00,SE,131,0.0,6.0,88,0.00,,,0.05,Wunderground v.1.15,2013-04-14 19:40:00,
2013-04-14 15:45:00,45.8,42.4,30.00,SE,146,0.0,6.0,88,0.00,,,0.06,Wunderground v.1.15,2013-04-14 19:45:00,
2013-04-14 15:50:00,45.5,42.4,30.01,West,268,1.0,6.0,89,0.00,,,0.06,Wunderground v.1.15,2013-04-14 19:50:00,
2013-04-14 15:55:00,45.1,42.3,30.01,NW,319,3.0,6.0,90,0.00,,,0.06,Wunderground v.1.15,2013-04-14 19:55:00,
2013-04-14 16:05:00,44.3,41.0,30.01,NNE,15,5.0,6.0,88,0.00,,,0.07,Wunderground v.1.15,2013-04-14 20:05:00,
2013-04-14 16:10:00,44.1,41.1,30.01,NE,38,2.0,6.0,89,0.00,,,0.07,Wunderground v.1.15,2013-04-14 20:10:00,
2013-04-14 16:15:00,44.2,41.5,30.01,ENE,65,3.0,6.0,90,0.00,,,0.07,Wunderground v.1.15,2013-04-14 20:15:00,
2013-04-14 16:20:00,44.1,41.4,30.01,ENE,60,3.0,3.0,90,0.00,,,0.07,Wunderground v.1.15,2013-04-14 20:20:00,
2013-04-14 16:25:00,44.2,41.5,30.02,East,98,2.0,6.0,90,0.00,,,0.07,Wunderground v.1.15,2013-04-14 20:25:00,
2013-04-14 16:35:00,44.2,41.5,30.02,SE,138,1.0,6.0,90,0.00,,,0.07,Wunderground v.1.15,2013-04-14 20:35:00,
2013-04-14 16:40:00,44.1,41.6,30.02,ESE,113,2.0,2.0,91,0.00,,,0.07,Wunderground v.1.15,2013-04-14 20:40:00,
2013-04-14 16:45:00,44.5,42.0,30.02,ENE,64,1.0,6.0,91,0.00,,,0.07,Wunderground v.1.15,2013-04-14 20:45:00,
2013-04-14 16:50:00,44.9,42.4,30.02,NE,49,0.0,6.0,91,0.00,,,0.07,Wunderground v.1.15,2013-04-14 20:50:00,
2013-04-14 16:55:00,45.3,42.8,30.03,SSE,147,1.0,6.0,91,0.00,,,0.07,Wunderground v.1.15,2013-04-14 20:55:00,
2013-04-14 17:00:00,45.1,42.3,30.03,SSW,201,1.0,1.0,90,0.00,,,0.07,Wunderground v.1.15,2013-04-14 21:00:00,
2013-04-14 17:10:00,45.8,43.0,30.02,South,177,1.0,1.0,90,0.00,,,0.07,Wunderground v.1.15,2013-04-14 21:10:00,
2013-04-14 17:15:00,45.6,42.5,30.03,South,176,1.0,6.0,89,0.00,,,0.07,Wunderground v.1.15,2013-04-14 21:15:00,
2013-04-14 17:20:00,45.5,42.4,30.03,SSW,211,1.0,6.0,89,0.00,,,0.07,Wunderground v.1.15,2013-04-14 21:20:00,
2013-04-14 17:25:00,45.2,41.9,30.03,SSW,211,1.0,6.0,88,0.00,,,0.07,Wunderground v.1.15,2013-04-14 21:25:00,
2013-04-14 17:30:00,45.0,42.0,30.03,SSW,211,1.0,6.0,89,0.00,,,0.07,Wunderground v.1.15,2013-04-14 21:30:00,
2013-04-14 17:40:00,45.1,42.3,30.04,SSW,212,1.0,6.0,90,0.00,,,0.07,Wunderground v.1.15,2013-04-14 21:40:00,
2013-04-14 17:45:00,45.1,42.1,30.04,SSW,212,1.0,6.0,89,0.00,,,0.07,Wunderground v.1.15,2013-04-14 21:45:00,
2013-04-14 17:50:00,45.3,42.5,30.04,SSW,212,1.0,1.0,90,0.00,,,0.07,Wunderground v.1.15,2013-04-14 21:50:00,
2013-04-14 17:55:00,45.5,42.7,30.04,SSW,212,0.0,6.0,90,0.00,,,0.07,Wunderground v.1.15,2013-04-14 21:55:00,
2013-04-14 18:00:00,45.5,42.4,30.04,SSW,212,0.0,6.0,89,0.00,,,0.07,Wunderground v.1.15,2013-04-14 22:00:00,
2013-04-14 18:05:00,45.6,42.5,30.04,SSW,212,0.0,6.0,89,0.00,,,0.07,Wunderground v.1.15,2013-04-14 22:05:00,
2013-04-14 18:15:00,45.8,42.7,30.06,SSW,212,0.0,6.0,89,0.00,,,0.07,Wunderground v.1.15,2013-04-14 22:15:00,
2013-04-14 18:20:00,46.0,42.9,30.06,SSW,212,0.0,6.0,89,0.00,,,0.07,Wunderground v.1.15,2013-04-14 22:20:00,
2013-04-14 18:25:00,46.1,43.0,30.07,SSW,212,0.0,6.0,89,0.00,,,0.07,Wunderground v.1.15,2013-04-14 22:25:00,
2013-04-14 18:30:00,46.2,43.1,30.07,SSW,212,0.0,6.0,89,0.00,,,0.07,Wunderground v.1.15,2013-04-14 22:30:00,
2013-04-14 18:35:00,46.3,43.2,30.07,SSW,212,0.0,6.0,89,0.00,,,0.07,Wunderground v.1.15,2013-04-14 22:35:00,
2013-04-14 18:45:00,46.2,43.4,30.08,SSW,212,0.0,6.0,90,0.00,,,0.07,Wunderground v.1.15,2013-04-14 22:45:00,
2013-04-14 18:50:00,45.9,43.1,30.08,SSW,212,0.0,6.0,90,0.00,,,0.07,Wunderground v.1.15,2013-04-14 22:50:00,
2013-04-14 18:55:00,45.6,42.8,30.09,SW,215,0.0,6.0,90,0.00,,,0.07,Wunderground v.1.15,2013-04-14 22:55:00,
2013-04-14 19:00:00,45.4,42.9,30.09,SW,214,0.0,6.0,91,0.00,,,0.07,Wunderground v.1.15,2013-04-14 23:00:00,
2013-04-14 19:05:00,45.2,42.7,30.09,SW,214,0.0,6.0,91,0.00,,,0.07,Wunderground v.1.15,2013-04-14 23:05:00,
2013-04-14 19:10:00,45.0,42.5,30.10,SW,223,1.0,6.0,91,0.00,,,0.07,Wunderground v.1.15,2013-04-14 23:10:00,
2013-04-14 19:20:00,44.5,42.3,30.10,SW,223,1.0,1.0,92,0.00,,,0.07,Wunderground v.1.15,2013-04-14 23:20:00,
2013-04-14 19:25:00,44.3,42.4,30.09,SW,215,1.0,6.0,93,0.00,,,0.07,Wunderground v.1.15,2013-04-14 23:25:00,
2013-04-14 19:30:00,44.3,42.4,30.10,SW,225,0.0,6.0,93,0.00,,,0.07,Wunderground v.1.15,2013-04-14 23:30:00,
2013-04-14 19:35:00,44.4,42.5,30.10,SW,225,0.0,6.0,93,0.00,,,0.07,Wunderground v.1.15,2013-04-14 23:35:00,
2013-04-14 19:40:00,44.3,42.4,30.10,SW,226,1.0,1.0,93,0.00,,,0.07,Wunderground v.1.15,2013-04-14 23:40:00,
2013-04-14 19:50:00,44.2,42.3,30.10,SW,225,0.0,6.0,93,0.00,,,0.07,Wunderground v.1.15,2013-04-14 23:50:00,
2013-04-14 19:55:00,44.1,42.2,30.10,SW,225,0.0,6.0,93,0.00,,,0.07,Wunderground v.1.15,2013-04-14 23:55:00,
2013-04-14 20:05:00,43.2,41.3,30.11,SW,225,0.0,6.0,93,0.00,,,0.07,Wunderground v.1.15,2013-04-15 00:05:00,
2013-04-14 20:10:00,43.0,41.1,30.11,SW,225,0.0,6.0,93,0.00,,,0.07,Wunderground v.1.15,2013-04-15 00:10:00,
2013-04-14 20:15:00,42.9,41.0,30.12,SW,225,0.0,6.0,93,0.00,,,0.07,Wunderground v.1.15,2013-04-15 00:15:00,
2013-04-14 20:25:00,42.4,40.5,30.12,SW,225,0.0,6.0,93,0.00,,,0.07,Wunderground v.1.15,2013-04-15 00:25:00,
2013-04-14 20:30:00,42.2,40.3,30.12,SW,225,0.0,6.0,93,0.00,,,0.07,Wunderground v.1.15,2013-04-15 00:30:00,
2013-04-14 20:35:00,41.9,40.0,30.13,SW,226,0.0,6.0,93,0.00,,,0.07,Wunderground v.1.15,2013-04-15 00:35:00,
2013-04-14 20:40:00,41.5,39.9,30.13,SW,225,0.0,6.0,94,0.00,,,0.07,Wunderground v.1.15,2013-04-15 00:40:00,
2013-04-14 20:45:00,41.4,39.8,30.14,SW,225,0.0,6.0,94,0.00,,,0.07,Wunderground v.1.15,2013-04-15 00:45:00,
2013-04-14 20:50:00,41.3,39.7,30.14,SW,226,0.0,6.0,94,0.00,,,0.07,Wunderground v.1.15,2013-04-15 00:50:00,
2013-04-14 20:55:00,41.1,39.5,30.14,SW,225,0.0,6.0,94,0.00,,,0.07,Wunderground v.1.15,2013-04-15 00:55:00,
2013-04-14 21:05:00,40.9,39.3,30.15,SW,225,0.0,6.0,94,0.00,,,0.07,Wunderground v.1.15,2013-04-15 01:05:00,
2013-04-14 21:10:00,40.7,39.1,30.15,SW,225,0.0,6.0,94,0.00,,,0.07,Wunderground v.1.15,2013-04-15 01:10:00,
2013-04-14 21:15:00,40.6,39.0,30.16,SW,225,0.0,6.0,94,0.00,,,0.07,Wunderground v.1.15,2013-04-15 01:15:00,
2013-04-14 21:20:00,40.5,39.2,30.16,SW,225,0.0,6.0,95,0.00,,,0.07,Wunderground v.1.15,2013-04-15 01:20:00,
2013-04-14 21:30:00,40.7,39.4,30.17,SW,225,0.0,6.0,95,0.00,,,0.07,Wunderground v.1.15,2013-04-15 01:30:00,
2013-04-14 21:35:00,40.6,39.3,30.17,SW,225,0.0,6.0,95,0.00,,,0.07,Wunderground v.1.15,2013-04-15 01:35:00,
2013-04-14 21:40:00,40.4,39.1,30.17,SW,225,0.0,6.0,95,0.00,,,0.07,Wunderground v.1.15,2013-04-15 01:40:00,
2013-04-14 21:45:00,40.3,39.0,30.17,SW,225,0.0,6.0,95,0.00,,,0.07,Wunderground v.1.15,2013-04-15 01:45:00,
2013-04-14 21:50:00,40.3,39.0,30.17,SW,225,0.0,6.0,95,0.00,,,0.07,Wunderground v.1.15,2013-04-15 01:50:00,
2013-04-14 21:55:00,40.3,39.0,30.17,SW,225,0.0,6.0,95,0.00,,,0.07,Wunderground v.1.15,2013-04-15 01:55:00,
2013-04-14 22:05:00,40.0,38.7,30.17,SW,225,0.0,6.0,95,0.00,,,0.07,Wunderground v.1.15,2013-04-15 02:05:00,
2013-04-14 22:10:00,39.7,38.4,30.18,SW,225,0.0,6.0,95,0.00,,,0.07,Wunderground v.1.15,2013-04-15 02:10:00,
2013-04-14 22:15:00,39.3,38.0,30.18,SW,225,1.0,6.0,95,0.00,,,0.07,Wunderground v.1.15,2013-04-15 02:15:00,
2013-04-14 22:20:00,38.9,37.6,30.18,SW,225,0.0,6.0,95,0.00,,,0.07,Wunderground v.1.15,2013-04-15 02:20:00,
2013-04-14 22:25:00,38.7,37.4,30.18,SW,225,0.0,6.0,95,0.00,,,0.07,Wunderground v.1.15,2013-04-15 02:25:00,
2013-04-14 22:35:00,38.5,37.2,30.19,SW,225,0.0,6.0,95,0.00,,,0.07,Wunderground v.1.15,2013-04-15 02:35:00,
2013-04-14 22:40:00,38.2,36.9,30.19,SW,226,0.0,6.0,95,0.00,,,0.07,Wunderground v.1.15,2013-04-15 02:40:00,
2013-04-14 22:45:00,38.0,36.7,30.19,SW,225,0.0,6.0,95,0.00,,,0.07,Wunderground v.1.15,2013-04-15 02:45:00,
2013-04-14 22:50:00,37.8,36.5,30.19,SW,225,0.0,6.0,95,0.00,,,0.07,Wunderground v.1.15,2013-04-15 02:50:00,
2013-04-14 22:55:00,37.6,36.3,30.19,SW,225,0.0,6.0,95,0.00,,,0.07,Wunderground v.1.15,2013-04-15 02:55:00,
2013-04-14 23:00:00,37.5,36.2,30.19,SW,225,0.0,6.0,95,0.00,,,0.07,Wunderground v.1.15,2013-04-15 03:00:00,
2013-04-14 23:05:00,37.3,36.0,30.19,SW,225,0.0,6.0,95,0.00,,,0.07,Wunderground v.1.15,2013-04-15 03:05:00,
2013-04-14 23:10:00,37.0,35.7,30.19,SW,225,0.0,6.0,95,0.00,,,0.07,Wunderground v.1.15,2013-04-15 03:10:00,
2013-04-14 23:15:00,36.9,35.6,30.19,SW,225,0.0,6.0,95,0.00,,,0.07,Wunderground v.1.15,2013-04-15 03:15:00,
2013-04-14 23:20:00,36.8,35.5,30.19,SW,225,0.0,6.0,95,0.00,,,0.07,Wunderground v.1.15,2013-04-15 03:20:00,
2013-04-14 23:25:00,36.7,35.4,30.20,SW,225,0.0,6.0,95,0.00,,,0.07,Wunderground v.1.15,2013-04-15 03:25:00,
2013-04-14 23:30:00,36.6,35.3,30.20,SW,225,0.0,6.0,95,0.00,,,0.07,Wunderground v.1.15,2013-04-15 03:30:00,
2013-04-14 23:40:00,36.6,35.6,30.20,SW,225,0.0,6.0,96,0.00,,,0.07,Wunderground v.1.15,2013-04-15 03:40:00,
2013-04-14 23:45:00,36.4,35.1,30.20,SW,225,0.0,6.0,95,0.00,,,0.07,Wunderground v.1.15,2013-04-15 03:45:00,
2013-04-14 23:50:00,36.2,34.9,30.20,SW,225,0.0,6.0,95,0.00,,,0.07,Wunderground v.1.15,2013-04-15 03:50:00,
2013-04-14 23:55:00,36.2,34.9,30.20,SW,225,0.0,6.0,95,0.00,,,0.07,Wunderground v.1.15,2013-04-15 03:55:00,